GW1335 Weather Reports


time (UTC)temp
C
wind
direction
speed
KPH
gust
KPH
rain 1hr
cm
rain 24hr
cm
rain mn
cm
humidity
%
barometer
mb
20260504003050 15 147 0.0 8.0 0.00 0.00 0.00 46 1013.9
20260504001606 16 247 1.6 8.0 0.00 0.00 0.00 45 1013.9
20260504000051 16 195 1.6 8.0 0.00 0.00 0.00 44 1013.9
20260503234556 16 171 1.6 6.4 0.00 0.00 0.00 43 1014.0
20260503233051 16 295 3.2 8.0 0.00 0.00 0.00 42 1013.8
20260503231555 16 229 4.8 14.5 0.00 0.00 0.00 41 1013.9
20260503230056 17 135 3.2 9.7 0.00 0.00 0.00 40 1014.2
20260503224554 16 186 1.6 16.1 0.00 0.00 0.00 41 1014.6
20260503223050 17 233 3.2 12.9 0.00 0.00 0.00 39 1014.7
20260503221546 17 274 6.4 16.1 0.00 0.00 0.00 38 1015.0
20260503220051 17 193 6.4 11.3 0.00 0.00 0.00 38 1014.9
20260503214557 17 280 4.8 11.3 0.00 0.00 0.00 37 1015.4
20260503213130 17 226 4.8 14.5 0.00 0.00 0.00 37 1015.7
20260503211616 17 271 3.2 17.7 0.00 0.00 0.00 36 1015.7
20260503210050 17 240 4.8 9.7 0.00 0.00 0.00 36 1015.5
20260503204603 17 274 6.4 11.3 0.00 0.00 0.00 36 1016.1
20260503203109 17 169 8.0 19.3 0.00 0.00 0.00 36 1016.1
20260503201548 17 193 3.2 16.1 0.00 0.00 0.00 35 1016.4
20260503200052 17 216 4.8 14.5 0.00 0.00 0.00 36 1016.6
20260503194554 16 238 4.8 14.5 0.00 0.00 0.00 37 1017.3
20260503193056 16 163 6.4 12.9 0.00 0.00 0.00 37 1017.6
20260503191603 16 0 1.6 16.1 0.00 0.00 0.00 36 1017.9
20260503190051 16 190 6.4 12.9 0.00 0.00 0.00 37 1018.2
20260503184606 15 235 8.0 14.5 0.00 0.00 0.00 35 1018.3
20260503183049 15 203 6.4 16.1 0.00 0.00 0.00 38 1018.7
20260503181552 15 215 4.8 16.1 0.00 0.00 0.00 38 1018.8
20260503180056 15 225 6.4 12.9 0.00 0.00 0.00 39 1019.1
20260503174603 15 287 4.8 9.7 0.00 0.00 0.00 37 1019.3
20260503173118 14 153 1.6 11.3 0.00 0.00 0.00 40 1019.5
20260503171551 14 285 3.2 19.3 0.00 0.00 0.00 40 1019.9
20260503081559 2 0 0.0 0.0 0.00 0.00 0.00 86 1019.9
20260503071607 2 0 0.0 0.0 0.00 0.00 0.00 84 1019.5
20260503070113 2 0 0.0 0.0 0.00 0.00 0.00 84 1019.6
20260503060105 3 0 0.0 0.0 0.00 0.00 0.00 79 1019.8
20260503054557 4 0 0.0 0.0 0.00 0.00 0.00 76 1019.8
20260503053050 4 0 0.0 0.0 0.00 0.00 0.00 75 1019.8
20260503051551 5 0 0.0 0.0 0.00 0.00 0.00 73 1019.7
20260503050057 5 0 0.0 0.0 0.00 0.00 0.00 72 1019.7
20260503044548 5 0 0.0 0.0 0.00 0.00 0.00 69 1019.6
20260503043048 6 0 0.0 0.0 0.00 0.00 0.00 67 1019.6
20260503041548 6 0 0.0 0.0 0.00 0.00 0.00 64 1019.6
20260503040055 7 0 0.0 1.6 0.00 0.00 0.00 62 1019.6
20260503034551 7 0 0.0 1.6 0.00 0.00 0.00 60 1019.6
20260503033057 7 0 0.0 0.0 0.00 0.00 0.00 60 1019.4
20260503031549 7 0 0.0 1.6 0.00 0.00 0.00 60 1019.3
20260503030053 8 0 0.0 1.6 0.00 0.00 0.00 60 1019.3
20260503024552 8 0 0.0 1.6 0.00 0.00 0.00 59 1019.3
20260503023048 9 358 0.0 0.0 0.00 0.00 0.00 58 1019.1
20260503021553 9 0 0.0 1.6 0.00 0.00 0.00 57 1019.0
20260503020049 9 0 0.0 3.2 0.00 0.00 0.00 57 1018.9
20260503014602 10 0 0.0 1.6 0.00 0.00 0.00 57 1018.6
20260503013048 9 0 0.0 3.2 0.00 0.00 0.00 59 1018.4
20260503011553 10 0 0.0 0.0 0.00 0.00 0.00 62 1018.2
20260503010050 10 0 0.0 0.0 0.00 0.00 0.00 58 1017.9
20260503004545 10 5 0.0 1.6 0.00 0.00 0.00 57 1017.7